[[{"header":{"parameterUnit":"m.s-1","parameterCategory":1,"la1":30.2991,"la2":30.254,"lo1":-89.0895,"lo2":-89.0444,"dy":0.0017,"dx":0.0017,"nx":28,"ny":28,"refTime":"2024-07-05T09:00:00:Z","depth":0,"parameterNumber":2,"parameterNumberName":"U-component_of_WINDS"},"data":[0,0,0,0,0,0,0,0,0,0,0,0,0,0,0,0,0,0,0,0,0,0,0,0,0,0,0,0,0,0,0,0,0,0,0,0,0,0,0,0,0,0,0,0,0,0,0,0,0,0,0,0,0,0,0,0,0,0,4.8992,4.8994,0,4.9176,4.9178,4.918,4.9134,4.913,4.9127,4.9123,4.9313,4.9322,4.933,0,0,0,0,0,0,0,0,0,0,0,0,0,4.8601,4.8608,4.8992,4.8994,4.8996,4.9175,4.9178,4.9181,4.9134,4.913,4.9126,4.9122,4.9311,4.9321,4.9331,0,0,0,0,0,0,0,0,0,0,0,0,0,4.8776,4.8611,4.8991,4.8995,4.8997,4.9175,4.9178,4.9181,4.9135,4.913,4.9124,4.9119,4.9307,4.932,4.9332,4.9518,0,0,4.9371,4.9376,0,0,0,0,0,0,0,0,4.8767,4.8791,4.8992,4.8995,4.8998,4.9126,4.911,4.9294,4.9137,4.9083,4.9123,4.9117,4.9256,4.9272,4.9319,4.9527,4.9535,4.9372,4.9379,4.9385,4.9388,0,0,0,0,0,0,0,4.8754,4.8783,4.9065,4.8995,4.8999,4.8987,4.9006,4.9145,4.9197,4.9087,4.9084,4.9107,4.9256,4.9307,4.9323,4.9538,4.9371,4.9383,4.939,4.9395,4.9907,4.9912,0,0,0,0,0,0,4.874,4.8773,4.9059,4.907,4.8866,4.8999,4.902,4.909,4.9196,4.9207,4.9111,4.9104,4.9288,4.9308,4.9329,4.9552,4.9385,4.9397,4.9404,4.9901,4.9908,4.9915,0,0,0,0,0,0,4.8732,4.8766,4.9051,4.8921,4.8956,4.9011,4.9091,4.9097,4.9147,4.9214,4.9223,4.9153,4.9284,4.9311,4.9471,4.9558,4.9402,4.9414,4.9894,4.9903,4.9911,5.0002,0,0,0,0,0,0,4.8721,4.8763,4.8834,4.8923,4.8963,4.919,4.9096,4.9104,4.9169,4.9161,4.9255,4.9266,4.9282,4.9452,4.9484,4.9573,4.9424,4.9886,4.9898,4.9908,4.9991,5.0013,5.0031,0,0,0,0,0,4.8707,4.8853,4.8838,4.8873,4.9054,4.9195,4.9219,4.9234,4.9176,4.9248,4.9291,4.9263,4.9544,4.9469,4.9504,4.9598,4.9881,4.9894,4.9908,4.9982,5.0008,5.0031,0,0,0,0,0,0,4.8775,4.8865,4.8849,4.9029,4.9105,4.9187,4.9278,4.9261,4.9356,4.9345,4.936,4.9382,4.9544,4.9588,4.9502,4.9783,4.9704,4.9725,4.9749,4.9774,4.9794,4.9779,4.9434,0,0,0,0,0,4.8811,4.8918,4.8991,4.9142,4.9181,4.9223,4.9286,4.9291,4.937,4.9402,4.9456,4.9535,4.964,4.971,4.9811,4.9997,5.0016,5.008,5.0099,5.0116,5.0133,5.0233,5.0261,4.9959,4.9959,4.9959,0,0,4.8886,4.8948,4.9015,4.9157,4.9217,4.9327,4.9251,4.9371,4.9453,4.9421,4.9574,4.9617,4.9705,4.9878,4.9957,4.9919,5.0221,5.0133,5.0145,5.0154,5.025,5.0278,5.0304,4.9968,4.9966,4.9965,0,0,4.9079,4.9138,4.9269,4.933,4.942,4.9447,4.9479,4.9564,4.9591,4.9745,4.9722,4.982,5.0002,5.0066,5.0122,5.0338,5.0315,5.037,5.0474,5.0571,5.0595,5.0616,5.0692,5.0719,5.0388,5.0388,5.0389,0,4.9161,4.9326,4.9339,4.9461,4.9524,4.9499,4.9631,4.969,4.9809,4.9853,4.9809,5.0036,5.0094,5.0281,5.0333,5.038,5.0416,5.0359,5.0591,5.0612,5.0632,5.0704,5.0732,5.0394,5.0394,5.0393,5.0393,0,4.9422,4.9537,4.9632,4.9746,4.982,4.9947,4.9979,5.0052,5.0051,5.0082,5.0238,5.0307,5.0421,5.0466,5.0466,5.0652,5.0626,5.0586,5.0507,5.0667,5.0734,5.0762,5.0403,5.0401,5.0399,5.0398,0,0,4.9663,4.9782,4.9816,4.9867,4.9965,5.0054,5.0179,5.029,5.0351,5.0434,5.0539,5.0694,5.0657,5.0721,5.0728,5.0814,5.0978,5.0763,5.0766,5.0799,5.1185,5.1212,5.1244,5.0964,5.0969,5.0973,5.1177,0,4.9863,5.0083,5.0098,5.0297,5.0403,5.038,5.0489,5.056,5.0593,5.0687,5.0724,5.0832,5.0777,5.0815,5.0898,5.094,5.1055,5.0926,5.106,5.1065,5.1037,5.128,5.131,5.1499,5.1203,5.1208,5.1211,0,5.0126,5.0216,5.0425,5.0506,5.0551,5.0648,5.075,5.084,5.0921,5.0938,5.1009,5.1004,5.1132,5.1049,5.1225,5.1137,5.1193,5.1222,5.1229,5.1241,5.1147,5.1297,5.156,5.1587,5.1253,5.125,5.1247,0,5.0279,5.0452,5.0599,5.0643,5.0742,5.0811,5.0855,5.093,5.0995,5.1084,5.1125,5.1229,5.1285,5.1365,5.1387,5.1325,5.1563,5.1482,5.158,5.158,5.163,5.1626,5.1904,5.1669,5.1669,5.1668,5.1668,0,5.05,5.0629,5.0668,5.0759,5.0902,5.0917,5.1058,5.1098,5.1165,5.1262,5.125,5.1341,5.1366,5.1463,5.1481,5.1623,5.165,5.1667,5.167,5.1667,5.1665,5.1703,5.169,5.1676,5.1674,5.1673,5.1672,0,5.0694,5.0726,5.0885,5.0964,5.0987,5.1089,5.1157,5.1244,5.1274,5.1397,5.1427,5.1475,5.1588,5.1618,5.1754,5.1766,5.1933,5.1925,5.1905,5.1904,5.2,5.199,5.2311,5.2353,5.2092,5.2095,5.2097,0,5.0833,5.0931,5.102,5.1084,5.1131,5.1234,5.13,5.1319,5.1388,5.1486,5.156,5.1671,5.176,5.1941,5.1988,5.209,5.2084,5.2189,5.2099,5.2092,5.2083,5.2076,5.2085,5.2205,5.2208,5.221,5.2212,0,5.1074,5.1084,5.1179,5.128,5.1358,5.1438,5.1515,5.1568,5.1598,5.1675,5.1789,5.1859,5.1996,5.2105,5.2209,5.2254,5.2238,5.224,5.2268,5.2265,5.2249,5.2257,5.1949,5.2233,5.223,5.2229,5.2228,5.2227,5.1243,5.1329,5.1404,5.151,5.1569,5.1641,5.1725,5.1766,5.1861,5.1973,5.1979,5.2102,5.2179,5.2316,5.2367,5.2464,5.2432,5.2473,5.2483,5.2493,5.2499,5.2235,5.2483,5.2483,5.2482,5.2482,5.2481,0,5.1482,5.153,5.1626,5.1733,5.1816,5.1793,5.1877,5.1947,5.2056,5.2128,5.2216,5.2346,5.2452,5.2506,5.2611,5.2678,5.2673,5.2705,5.2699,5.2709,5.2523,5.2487,5.2707,5.2707,5.2707,5.2707,5.2706,5.2706,5.1616,5.1758,5.1778,5.1949,5.1995,5.2115,5.2165,5.223,5.2288,5.2433,5.2521,5.2555,5.2621,5.273,5.2825,5.2839,5.2877,5.2912,5.2921,5.2746,5.2723,5.2701,5.2667,5.2921,5.2921,5.31,5.3101,5.3103]},{"header":{"parameterUnit":"m.s-1","parameterCategory":1,"la1":30.2991,"la2":30.254,"lo1":-89.0895,"lo2":-89.0444,"dy":0.0017,"dx":0.0017,"nx":28,"ny":28,"refTime":"2024-07-05T09:00:00:Z","depth":0,"parameterNumber":3,"parameterNumberName":"V-component_of_WINDS"},"data":[0,0,0,0,0,0,0,0,0,0,0,0,0,0,0,0,0,0,0,0,0,0,0,0,0,0,0,0,0,0,0,0,0,0,0,0,0,0,0,0,0,0,0,0,0,0,0,0,0,0,0,0,0,0,0,0,0,0,0.3213,0.3213,0,0.3202,0.3202,0.3202,0.3201,0.3201,0.3202,0.3202,0.319,0.3189,0.3189,0,0,0,0,0,0,0,0,0,0,0,0,0,0.3231,0.3231,0.3213,0.3213,0.3213,0.3202,0.3202,0.3202,0.3201,0.3201,0.3202,0.3202,0.319,0.3189,0.3189,0,0,0,0,0,0,0,0,0,0,0,0,0,0.3222,0.3231,0.3213,0.3211,0.3211,0.3202,0.3202,0.3202,0.3201,0.3201,0.3202,0.3202,0.319,0.3189,0.3189,0.3181,0,0,0.3187,0.3187,0,0,0,0,0,0,0,0,0.3223,0.3221,0.3212,0.3211,0.3211,0.3203,0.3204,0.3195,0.3201,0.3205,0.3202,0.3202,0.3194,0.3193,0.3191,0.318,0.318,0.3187,0.3186,0.3186,0.3186,0,0,0,0,0,0,0,0.3223,0.3222,0.3209,0.3211,0.3211,0.321,0.3209,0.3202,0.3199,0.3205,0.3205,0.3203,0.3194,0.3191,0.319,0.318,0.3187,0.3186,0.3186,0.3186,0.3161,0.3161,0,0,0,0,0,0,0.3224,0.3222,0.3209,0.3208,0.3217,0.321,0.3209,0.3206,0.3199,0.3198,0.3203,0.3203,0.3192,0.3191,0.319,0.318,0.3186,0.3185,0.3185,0.3161,0.3161,0.3161,0,0,0,0,0,0,0.3225,0.3223,0.321,0.3215,0.3214,0.3209,0.3206,0.3205,0.3203,0.3198,0.3197,0.3201,0.3192,0.3191,0.3183,0.3179,0.3185,0.3185,0.3162,0.3161,0.3161,0.3159,0,0,0,0,0,0,0.3225,0.3223,0.3221,0.3215,0.3213,0.3203,0.3206,0.3205,0.3202,0.3202,0.3196,0.3195,0.3192,0.3184,0.3182,0.3178,0.3184,0.3162,0.3161,0.3161,0.316,0.3159,0.3158,0,0,0,0,0,0.3226,0.3221,0.3221,0.3219,0.321,0.3203,0.3202,0.32,0.3201,0.3198,0.3195,0.3195,0.318,0.3183,0.3181,0.3177,0.3162,0.3161,0.3161,0.316,0.3159,0.3158,0,0,0,0,0,0,0.3226,0.322,0.322,0.3213,0.3209,0.3203,0.32,0.3199,0.3194,0.3194,0.3191,0.319,0.3181,0.3178,0.3182,0.3168,0.3171,0.317,0.3171,0.317,0.3169,0.317,0.3184,0,0,0,0,0,0.3226,0.3221,0.3216,0.321,0.3208,0.3204,0.3201,0.3199,0.3194,0.3192,0.3188,0.3183,0.3177,0.3173,0.3168,0.3159,0.3157,0.3155,0.3154,0.3154,0.3153,0.3147,0.3145,0.3159,0.3159,0.3159,0,0,0.3224,0.322,0.3218,0.321,0.3206,0.3201,0.3202,0.3197,0.3192,0.3192,0.3184,0.318,0.3174,0.3166,0.3162,0.3163,0.3149,0.3153,0.3152,0.3152,0.3146,0.3145,0.3144,0.3158,0.3158,0.3158,0,0,0.3219,0.3216,0.321,0.3206,0.3201,0.3198,0.3196,0.319,0.3188,0.318,0.3179,0.3173,0.3163,0.3159,0.3155,0.3146,0.3145,0.3144,0.314,0.3134,0.3133,0.3132,0.3128,0.3127,0.3143,0.3143,0.3143,0,0.3218,0.321,0.3207,0.3202,0.3198,0.3196,0.319,0.3186,0.3179,0.3176,0.3178,0.3164,0.316,0.3149,0.3147,0.3144,0.3142,0.3145,0.3134,0.3133,0.3132,0.3128,0.3127,0.3143,0.3143,0.3143,0.3143,0,0.3208,0.3203,0.3199,0.3192,0.3187,0.3181,0.3177,0.3173,0.3172,0.3168,0.3159,0.3154,0.3147,0.3144,0.3143,0.3133,0.3134,0.3135,0.3137,0.3131,0.3127,0.3125,0.3143,0.3143,0.3143,0.3143,0,0,0.3204,0.3194,0.3193,0.3189,0.3182,0.3177,0.3171,0.3163,0.3159,0.3154,0.3148,0.3138,0.3139,0.3134,0.3132,0.3127,0.3119,0.3128,0.3128,0.3126,0.3107,0.3106,0.3105,0.3118,0.3118,0.3118,0.3107,0,0.3197,0.3186,0.3183,0.3173,0.3167,0.3165,0.3159,0.3153,0.315,0.3144,0.3139,0.3133,0.3134,0.3131,0.3126,0.3121,0.3115,0.3122,0.3112,0.3111,0.3113,0.3103,0.3102,0.3093,0.3106,0.3105,0.3105,0,0.3188,0.3182,0.3172,0.3165,0.3162,0.3157,0.3149,0.3144,0.3137,0.3134,0.3129,0.3127,0.3118,0.3121,0.3109,0.3114,0.3109,0.3106,0.3106,0.3105,0.3108,0.3101,0.309,0.3088,0.3103,0.3103,0.3103,0,0.3185,0.3175,0.3167,0.3164,0.3155,0.3151,0.3147,0.314,0.3136,0.3129,0.3126,0.3118,0.3113,0.3107,0.3102,0.3105,0.309,0.3093,0.3087,0.3087,0.3084,0.3085,0.3072,0.3082,0.3082,0.3082,0.3082,0,0.3178,0.3172,0.3165,0.3161,0.3153,0.3149,0.3141,0.3137,0.313,0.3124,0.3121,0.3115,0.3109,0.3102,0.3098,0.3088,0.3086,0.3084,0.3083,0.3084,0.3084,0.3081,0.3081,0.3081,0.3082,0.3082,0.3082,0,0.3174,0.317,0.3161,0.3153,0.315,0.3145,0.3138,0.3132,0.3128,0.312,0.3118,0.3111,0.3102,0.3096,0.3085,0.3082,0.3071,0.3071,0.3074,0.3073,0.3068,0.3068,0.3052,0.305,0.3062,0.3062,0.3062,0,0.317,0.3165,0.3156,0.3152,0.3148,0.3141,0.3136,0.3131,0.3126,0.3117,0.3112,0.3103,0.3096,0.3081,0.3075,0.3066,0.3065,0.306,0.3063,0.3064,0.3064,0.3064,0.3063,0.3059,0.3059,0.3059,0.3059,0,0.3163,0.3161,0.3154,0.3146,0.314,0.3134,0.3127,0.3123,0.3117,0.3111,0.3102,0.3096,0.3084,0.3075,0.3065,0.306,0.3058,0.3057,0.3056,0.3057,0.3058,0.3057,0.3072,0.3058,0.3058,0.3058,0.3058,0.3058,0.3158,0.3153,0.3146,0.3138,0.3133,0.3126,0.312,0.3115,0.3108,0.3098,0.3095,0.3085,0.3077,0.3063,0.3058,0.3049,0.305,0.3047,0.3047,0.3046,0.3045,0.306,0.3047,0.3047,0.3047,0.3047,0.3047,0,0.3151,0.3146,0.3138,0.3129,0.3123,0.3121,0.3113,0.3108,0.3099,0.3092,0.3084,0.3073,0.3063,0.3056,0.3046,0.304,0.3039,0.3038,0.3038,0.3036,0.3046,0.3048,0.3039,0.3039,0.3039,0.3039,0.3039,0.3039,0.3146,0.3137,0.3133,0.3121,0.3116,0.3106,0.3102,0.3095,0.3089,0.3077,0.3069,0.3064,0.3056,0.3045,0.3036,0.3033,0.303,0.3028,0.3026,0.3035,0.3036,0.3037,0.3039,0.3028,0.3028,0.3017,0.3017,0.3017]}]]